South Beach, OR

12:13 AM PDT on October 01, 2016 (GMT -0700)
Newport Municipal

Weather History for KONP - July, 2013

Change the Weather History Date:

Saturday, July 13, 2013

  Actual Average Record
Temperature  
Mean Temperature 51 °F -  
Max Temperature 60 °F 62 °F 69 °F (1996)
Min Temperature 42 °F 52 °F 42 °F (2013)
Degree Days  
Heating Degree Days 14    
Growing Degree Days 1 (Base 50)    
Moisture  
Dew Point 49 °F    
Average Humidity 85    
Maximum Humidity 100    
Minimum Humidity 63    
Precipitation  
Precipitation 0.00 in - - ()
Sea Level Pressure  
Sea Level Pressure 30.15 in    
Wind  
Wind Speed 7 mph (North)    
Max Wind Speed 24 mph    
Max Gust Speed 32 mph    
Visibility 9 miles    
Events      
Averages and records for this station are not official NWS values.
T = Trace of Precipitation, MM = Missing Value Source: NWS Daily Summary

Daily Weather History Graph

Daily Weather History Graph

Search for Another Location

Airport or City:

Trip Planner

Search our weather history database for the weather conditions in past years. The results will help you decide how hot, cold, wet, or windy it might be!

Date:

Astronomy

Jul. 13, 2013 Rise Set
Actual Time 5:43 AM PDT 8:59 PM PDT
Civil Twilight 5:08 AM PDT 9:35 PM PDT
Nautical Twilight 4:21 AM PDT 10:21 PM PDT
Astronomical Twilight 3:24 AM PDT 11:18 PM PDT
Moon 11:21 AM PDT (7/13) 11:26 PM PDT (7/13)
Length of Visible Light 16h 27m
Length of Day
15h 15m
Waxing Crescent, 26% of the Moon is Illuminated
Jul 13
Waxing Crescent
Jul 15
First Quarter
Jul 22
Full
Jul 29
Last Quarter
Aug 6
New

Hourly Weather History & Observations

Time (PDT) Temp. Windchill Dew Point Humidity Pressure Visibility Wind Dir Wind Speed Gust Speed Precip Events Conditions
12:15 AM 46.4 °F - 44.6 °F 93% 30.16 in 10.0 mi Calm Calm - N/A   Clear
12:35 AM 46.4 °F - 44.6 °F 93% 30.15 in 10.0 mi Calm Calm - N/A   Clear
12:55 AM 44.6 °F - 44.6 °F 100% 30.16 in 10.0 mi Calm Calm - N/A   Clear
1:15 AM 44.6 °F - 44.6 °F 100% 30.16 in 10.0 mi Calm Calm - N/A   Clear
1:35 AM 44.6 °F - 44.6 °F 100% 30.15 in 10.0 mi Calm Calm - N/A   Clear
1:55 AM 44.6 °F - 42.8 °F 93% 30.16 in 10.0 mi Calm Calm - N/A   Clear
2:15 AM 44.6 °F - 42.8 °F 93% 30.16 in 10.0 mi Calm Calm - N/A   Clear
2:35 AM 42.8 °F - 42.8 °F 100% 30.16 in 10.0 mi Calm Calm - N/A   Clear
2:55 AM 44.6 °F - 42.8 °F 93% 30.16 in 10.0 mi Calm Calm - N/A   Clear
3:15 AM 42.8 °F - 41.0 °F 93% 30.16 in 10.0 mi Calm Calm - N/A   Clear
3:35 AM 42.8 °F - 41.0 °F 93% 30.16 in 10.0 mi Calm Calm - N/A   Clear
3:55 AM 42.8 °F - 42.8 °F 100% 30.16 in 10.0 mi Calm Calm - N/A   Clear
4:15 AM 44.6 °F 41.4 °F 44.6 °F 100% 30.16 in 10.0 mi East 5.8 mph - N/A   Clear
4:35 AM 46.4 °F 44.3 °F 44.6 °F 93% 30.16 in 10.0 mi ENE 4.6 mph - N/A   Clear
4:55 AM 44.6 °F 42.2 °F 44.6 °F 100% 30.16 in 10.0 mi East 4.6 mph - N/A   Clear
5:15 AM 44.6 °F - 44.6 °F 100% 30.16 in 7.0 mi Calm Calm - N/A   Clear
5:35 AM 44.6 °F 42.2 °F 44.6 °F 100% 30.16 in 7.0 mi East 4.6 mph - N/A   Clear
5:55 AM 42.8 °F 40.1 °F 42.8 °F 100% 30.17 in 7.0 mi ENE 4.6 mph - N/A   Clear
6:15 AM 44.6 °F 41.4 °F 42.8 °F 93% 30.16 in 5.0 mi ENE 5.8 mph - N/A   Clear
6:35 AM 46.4 °F 44.3 °F 44.6 °F 93% 30.17 in 4.0 mi East 4.6 mph - N/A   Clear
6:55 AM 46.4 °F 45.2 °F 46.4 °F 100% - 5.0 mi ENE 3.5 mph - N/A   Clear
7:15 AM 48.2 °F - 48.2 °F 100% 30.18 in 7.0 mi Calm Calm - N/A   Clear
7:35 AM 50.0 °F - 50.0 °F 100% 30.19 in 10.0 mi NNE 4.6 mph - N/A   Clear
7:55 AM 51.8 °F - 50.0 °F 94% 30.19 in 10.0 mi NE 3.5 mph - N/A   Clear
8:15 AM 53.6 °F - 50.0 °F 88% 30.19 in 10.0 mi NE 3.5 mph - N/A   Clear
8:35 AM 55.4 °F - 50.0 °F 82% 30.19 in 10.0 mi North 3.5 mph - N/A   Clear
8:55 AM 55.4 °F - 50.0 °F 82% 30.20 in 10.0 mi NNW 4.6 mph - N/A   Clear
9:15 AM 59.0 °F - 50.0 °F 72% 30.19 in 10.0 mi NNE 3.5 mph - N/A   Clear
9:35 AM 57.2 °F - 48.2 °F 72% 30.20 in 10.0 mi NW 8.1 mph - N/A   Clear
9:55 AM 57.2 °F - 46.4 °F 67% 30.19 in 10.0 mi NNW 10.4 mph - N/A   Clear
10:15 AM 59.0 °F - 48.2 °F 67% 30.19 in 10.0 mi NNW 9.2 mph - N/A   Clear
10:35 AM 59.0 °F - 46.4 °F 63% 30.19 in 10.0 mi NNW 11.5 mph - N/A   Clear
10:55 AM 59.0 °F - 48.2 °F 67% 30.18 in 10.0 mi NNW 10.4 mph - N/A   Clear
11:15 AM 60.8 °F - 50.0 °F 68% 30.18 in 10.0 mi NNW 13.8 mph - N/A   Clear
11:35 AM 60.8 °F - 50.0 °F 68% 30.18 in 10.0 mi NNW 13.8 mph - N/A   Clear
11:55 AM 60.8 °F - 50.0 °F 68% 30.17 in 10.0 mi NNW 16.1 mph - N/A   Clear
12:15 PM 59.0 °F - 50.0 °F 72% 30.17 in 10.0 mi NNW 18.4 mph 23.0 mph N/A   Clear
12:35 PM 60.8 °F - 50.0 °F 68% 30.17 in 10.0 mi North 19.6 mph 23.0 mph N/A   Clear
12:55 PM 60.8 °F - 51.8 °F 72% 30.16 in 10.0 mi NNW 18.4 mph 24.2 mph N/A   Clear
1:15 PM 60.8 °F - 51.8 °F 72% 30.16 in 10.0 mi North 20.7 mph 25.3 mph N/A   Clear
1:35 PM 59.0 °F - 51.8 °F 77% 30.16 in 10.0 mi NNW 19.6 mph 24.2 mph N/A   Clear
1:55 PM 59.0 °F - 50.0 °F 72% 30.16 in 10.0 mi NNW 19.6 mph 29.9 mph N/A   Clear
2:15 PM 59.0 °F - 51.8 °F 77% 30.16 in 10.0 mi North 17.3 mph 25.3 mph N/A   Clear
2:35 PM 59.0 °F - 51.8 °F 77% 30.15 in 10.0 mi North 19.6 mph 28.8 mph N/A   Clear
2:55 PM 59.0 °F - 51.8 °F 77% 30.14 in 10.0 mi North 24.2 mph 31.1 mph N/A   Clear
3:15 PM 59.0 °F - 51.8 °F 77% 30.14 in 10.0 mi North 23.0 mph 31.1 mph N/A   Clear
3:35 PM 60.8 °F - 51.8 °F 72% 30.13 in 10.0 mi North 19.6 mph 28.8 mph N/A   Clear
3:55 PM 60.8 °F - 51.8 °F 72% 30.12 in 7.0 mi NNW 23.0 mph 28.8 mph N/A   Clear
4:15 PM 60.8 °F - 51.8 °F 72% 30.12 in 10.0 mi NNW 23.0 mph - N/A   Clear
4:35 PM 60.8 °F - 51.8 °F 72% 30.11 in 10.0 mi NNW 20.7 mph 29.9 mph N/A   Clear
4:55 PM 60.8 °F - 51.8 °F 72% 30.11 in 10.0 mi NNW 23.0 mph 27.6 mph N/A   Clear
5:15 PM 60.8 °F - 51.8 °F 72% 30.10 in 10.0 mi NNW 20.7 mph 26.5 mph N/A   Clear
5:35 PM 60.8 °F - 51.8 °F 72% 30.11 in 10.0 mi North 20.7 mph 29.9 mph N/A   Clear
5:55 PM 59.0 °F - 51.8 °F 77% 30.11 in 10.0 mi North 17.3 mph 28.8 mph N/A   Clear
6:15 PM 59.0 °F - 51.8 °F 77% 30.11 in 10.0 mi North 17.3 mph 32.2 mph N/A   Clear
6:35 PM 59.0 °F - 51.8 °F 77% 30.10 in 10.0 mi North 18.4 mph 26.5 mph N/A   Clear
6:55 PM 59.0 °F - 51.8 °F 77% 30.10 in 10.0 mi North 18.4 mph 26.5 mph N/A   Clear
7:15 PM 57.2 °F - 51.8 °F 82% 30.10 in 10.0 mi North 18.4 mph 28.8 mph N/A   Clear
7:35 PM 57.2 °F - 51.8 °F 82% 30.10 in 7.0 mi NNW 23.0 mph 28.8 mph N/A   Clear
7:55 PM 55.4 °F - 51.8 °F 88% 30.10 in 7.0 mi NNW 20.7 mph 24.2 mph N/A   Clear
8:15 PM 55.4 °F - 51.8 °F 88% 30.10 in 7.0 mi NNW 19.6 mph - N/A   Clear
8:35 PM 53.6 °F - 50.0 °F 88% 30.11 in 7.0 mi NNW 17.3 mph 23.0 mph N/A   Clear
8:55 PM 53.6 °F - 50.0 °F 88% 30.11 in 7.0 mi North 11.5 mph 21.9 mph N/A   Clear
9:15 PM 53.6 °F - 51.8 °F 94% 30.11 in 7.0 mi North 13.8 mph - N/A   Clear
9:35 PM 53.6 °F - 51.8 °F 94% 30.12 in 7.0 mi North 13.8 mph 19.6 mph N/A   Clear
9:55 PM 51.8 °F - 50.0 °F 94% 30.13 in 7.0 mi North 10.4 mph 17.3 mph N/A   Clear
10:15 PM 51.8 °F - 50.0 °F 94% 30.13 in 7.0 mi North 8.1 mph - N/A   Clear
10:35 PM 51.8 °F - 50.0 °F 94% 30.12 in 5.0 mi North 6.9 mph - N/A   Clear
10:55 PM 51.8 °F - 50.0 °F 94% 30.13 in 5.0 mi NNW 9.2 mph - N/A   Clear
11:15 PM 50.0 °F - 50.0 °F 100% 30.13 in 5.0 mi North 6.9 mph - N/A   Clear
11:35 PM 50.0 °F - 48.2 °F 94% 30.13 in 5.0 mi North 4.6 mph - N/A   Clear
11:55 PM 50.0 °F - 48.2 °F 94% 30.13 in 5.0 mi Calm Calm - N/A   Clear